Location: Morris County Observatory
(40.8287°N, 74.5644°W)
Time: 10:08:08
(UTC-05:00)

X-37B - Visible Passes

Search period start: 27 November 2020 00:00
Search period end: 07 December 2020 00:00
Orbit: 384 x 389 km, 45.0° (Epoch: 12 November)

Date Brightness Start Highest point End Pass type
(mag) Time Alt. Az. Time Alt. Az. Time Alt. Az.
27 Nov 1.5 17:41:01 10° SW 17:43:56 35° SSE 17:45:13 24° ESE visible
27 Nov 4.2 19:17:24 10° W 19:17:30 11° W 19:17:30 11° W visible
28 Nov 0.7 18:18:43 10° WSW 18:21:38 71° WNW 18:21:38 71° WNW visible
29 Nov 0.7 17:20:10 10° SW 17:23:18 64° SSE 17:25:44 16° ENE visible
29 Nov 3.4 18:57:02 10° W 18:58:00 18° WNW 18:58:00 18° WNW visible
30 Nov 1.0 17:58:16 10° W 18:01:23 52° NNW 18:02:04 42° NNE visible
01 Dec 0.6 16:59:34 10° WSW 17:02:44 78° NNW 17:05:55 10° ENE visible
01 Dec 2.6 18:36:39 10° WNW 18:38:22 25° NW 18:38:22 25° NW visible
02 Dec 1.3 17:37:53 10° W 17:40:55 41° N 17:42:25 24° NE visible
03 Dec 1.7 18:16:13 10° WNW 18:18:44 34° NNW 18:18:44 34° NNW visible
04 Dec 1.5 17:17:30 10° WNW 17:20:30 36° N 17:22:49 15° ENE visible
04 Dec 3.4 18:54:19 10° WNW 18:55:05 16° WNW 18:55:05 16° WNW visible
05 Dec 1.1 17:55:44 10° WNW 17:58:47 42° N 17:59:13 39° NE visible
06 Dec 1.4 16:57:05 10° WNW 17:00:04 37° N 17:03:03 10° ENE visible
06 Dec 2.1 18:33:45 10° WNW 18:35:43 34° WNW 18:35:43 34° WNW visible
